CAPE
118 1 0 0 0 0 0 0 0 0 0 0 0 0 0 0 0 0 0 0 0 0 0 0 0 6 46 58 49 0 31 0 0 0 0 0 0 0 0 0 6 27 76
5 0 0 0 0 0 0 0 0 0 0 0 0 0 0 0 0 0 0 0 0 0 0 0 0 0 0 0 0 21 5 0 11 0 0 0 0 0 0 0 0 38 86
0 0 0 0 0 0 0 0 0 0 0 0 0 0 0 0 0 0 0 0 0 0 0 0 0 0 0 0 0 0 0 0 1 72 1 0 0 0 0 0 0 0 26
0 0 0 0 0 0 0 0 0 0 0 0 0 0 0 0 0 0 0 0 0 0 0 0 0 0 0 0 0 0 0 0 0 23 54 18 22 4 0 0 0 0 0
0 0 0 0 0 0 0 0 0 0 0 0 0 0 0 0 0 0 0 0 0 0 0 0 0 0 0 0 0 0 0 0 0 5 43 55 49 34 40 0 0 0 0
0 0 0 0 0 0 0 0 0 0 0 0 0 0 0 0 0 0 0 0 0 0 0 0 0 0 0 0 0 0 0 0 0 0 7 91 50 64 54 43 10 0 0
0 0 0 0 0 0 0 0 0 0 0 0 0 0 0 0 0 0 0 0 0 0 0 0 0 0 0 0 0 0 0 0 0 0 0 0 76 106 75 75 23 0 0
0 0 0 0 0 0 0 0 0 0 0 0 0 0 0 0 0 0 0 0 0 0 0 0 0 0 0 0 0 0 0 0 0 0 0 0 0 52 112 88 38 0 0
0 0 0 0 0 0 0 0 0 0 0 0 0 0 0 0 0 0 0 0 0 0 0 0 0 0 0 0 0 0 0 0 0 0 0 0 0 0 71 101 88 8 0
0 0 0 0 0 0 0 0 0 0 0 0 0 0 0 0 0 0 0 0 0 0 0 0 0 0 0 0 0 0 0 0 0 0 1 0 0 0 29 90 91 0 0
0 0 0 0 0 0 0 0 0 0 0 0 0 0 0 0 0 0 0 0 0 0 0 0 0 0 0 0 0 0 0 0 0 0 5 9 5 1 46 69 69 0 0
0 0 0 0 0 0 0 0 0 0 0 0 0 0 0 0 0 0 0 0 0 0 0 0 0 0 0 0 0 0 0 0 0 0 15 22 29 30 39 81 28 8 0
0 0 0 0 0 0 0 0 0 0 0 0 0 0 0 0 0 0 0 0 0 0 0 0 0 0 0 0 1 0 0 0 0 13 3 27 25 31 20 20 15 66 68
0 0 0 0 0 0 0 0 0 0 0 0 0 0 0 0 0 0 0 0 0 0 0 0 0 0 0 0 0 0 2 0 0 15 0 4 22 21 25 1 0 0 1
0 0 0 0 0 0 0 0 0 0 0 0 0 1 0 0 0 0 0 0 3 0 0 0 0 0 0 0 0 0 17 0 1 7 8 4 4 7 50 34 0 0 0
0 0 0 0 0 0 0 0 0 0 0 0 0 3 0 0 0 0 0 0 0 0 0 0 0 0 0 0 0 0 11 0 0 0 0 6 1 1 24 12 11 0 0
0 0 0 0 0 0 0 0 0 0 0 0 0 0 0 0 0 0 0 0 0 0 0 0 0 0 2 3 0 1 8 9 0 0 0 0 0 0 3 0 0 0 0
0 0 0 0 0 0 0 0 0 0 0 0 0 0 0 0 0 0 0 0 0 1 3 0 0 5 7 11 2 3 12 16 2 0 0 0 0 0 0 0 0 0 0
0 0 0 1 0 0 0 0 0 0 0 0 0 0 0 0 0 0 0 0 1 1 0 5 0 0 5 10 11 0 4 8 0 0 0 0 0 0 0 2 0 0 0
0 0 0 0 0 0 0 0 0 0 0 0 0 0 0 0 0 3 8 16 13 6 2 1 3 2 5 5 7 5 4 3 1 0 0 0 0 0 0 0 4 1 2
0 0 0 0 0 0 0 0 0 0 0 0 0 0 0 1 2 2 2 3 3 2 4 8 3 2 6 6 19 2 6 3 4 0 0 0 0 0 0 4 1 2 0
0 0 0 0 0 0 0 0 0 0 0 0 0 0 0 0 0 0 0 0 1 3 8 6 17 5 1 4 4 5 1 3 9 0 0 0 0 0 0 0 0 1 0
0 0 0 0 0 0 0 0 0 0 0 0 0 0 0 0 0 0 0 1 4 5 5 5 10 8 7 6 8 10 5 2 2 1 0 0 0 0 0 0 0 1 0
0 0 0 0 0 0 0 0 0 0 0 0 0 0 0 0 0 1 6 9 3 1 5 6 11 10 9 11 7 12 6 4 2 0 0 0 0 0 0 0 0 0 0
0 0 0 0 0 0 0 0 0 0 0 0 0 0 0 0 1 4 4 7 1 0 4 2 0 1 2 2 4 5 5 6 6 0 0 1 0 0 0 0 0 0 0
0 0 0 0 0 0 0 0 0 0 0 0 0 0 0 0 1 1 1 5 2 6 2 4 5 5 6 9 1 1 2 6 28 5 3 7 2 1 0 0 0 0 0
CIN
-75 -108 0 0 0 0 0 0 0 0 0 0 0 0 0 0 0 0 0 0 0 0 0 0 0 -47 -69 -44 -27 0 -17 0 0 0 0 0 0 0 0 0 -24 -32 -6
-70 0 0 0 0 0 0 0 0 0 0 0 0 0 0 0 0 0 0 0 0 0 0 0 0 0 0 0 0 -39 -8 0 -14 0 0 0 0 0 0 0 0 -60 -32
0 0 0 0 0 0 0 0 0 0 0 0 0 0 0 0 0 0 0 0 0 0 0 0 0 0 0 0 0 0 0 0 -1 -23 -6 0 0 0 0 0 0 0 -87
0 0 0 0 0 0 0 0 0 0 0 0 0 0 0 0 0 0 0 0 0 0 0 0 0 0 0 0 0 0 0 0 0 -49 -31 -28 -25 -6 0 0 0 0 0
0 0 0 0 0 0 0 0 0 0 0 0 0 0 0 0 0 0 0 0 0 0 0 0 0 0 0 0 0 0 0 0 0 -11 -21 -26 -26 -25 -27 0 0 0 0
0 0 0 0 0 0 0 0 0 0 0 0 0 0 0 0 0 0 0 0 0 0 0 0 0 0 0 0 0 0 0 0 0 0 -6 -3 -14 -14 -19 -22 -21 0 0
0 0 0 0 0 0 0 0 0 0 0 0 0 0 0 0 0 0 0 0 0 0 0 0 0 0 0 0 0 0 0 0 0 0 0 0 -2 -10 -13 -24 -42 0 0
0 0 0 0 0 0 0 0 0 0 0 0 0 0 0 0 0 0 0 0 0 0 0 0 0 0 0 0 0 0 0 0 0 0 0 0 0 -21 -6 -14 -42 0 0
0 0 0 0 0 0 0 0 0 0 0 0 0 0 0 0 0 0 0 0 0 0 0 0 0 0 0 0 0 0 0 0 0 0 0 0 0 0 -5 -5 -11 -64 0
0 0 0 0 0 0 0 0 0 0 0 0 0 0 0 0 0 0 0 0 0 0 0 0 0 0 0 0 0 0 0 0 0 0 0 0 0 0 -9 -2 -1 0 0
0 0 0 0 0 0 0 0 0 0 0 0 0 0 0 0 0 0 0 0 0 0 0 0 0 0 0 0 0 0 0 0 0 0 0 0 0 0 -10 -3 -1 0 0
0 0 0 0 0 0 0 0 0 0 0 0 0 0 0 0 0 0 0 0 0 0 0 0 0 0 0 0 0 0 0 0 0 0 0 0 -2 0 -12 -6 -1 -1 0
0 0 0 0 0 0 0 0 0 0 0 0 0 0 0 0 0 0 0 0 0 0 0 0 0 0 0 0 -1 0 0 0 0 -17 -3 -3 -5 -3 -5 -18 -19 -4 -9
0 0 0 0 0 0 0 0 0 0 0 0 0 0 0 0 0 0 0 0 0 0 0 0 0 0 0 0 0 0 -1 0 0 -14 0 -22 -22 -14 -9 -14 0 0 -4
0 0 0 0 0 0 0 0 0 0 0 0 0 -19 0 0 0 0 0 0 -2 0 0 0 0 0 0 0 0 0 -2 0 -18 -24 -11 -24 -36 -30 -13 -17 0 0 0
0 0 0 0 0 0 0 0 0 0 0 0 0 -18 0 0 0 0 0 0 0 0 0 0 0 0 0 0 0 0 -2 0 0 0 -19 -30 -28 -25 -11 -8 -5 0 0
0 0 0 0 0 0 0 0 0 0 0 0 0 0 0 0 0 0 0 0 0 0 -3 0 0 -1 -2 -1 0 -1 -2 0 0 0 0 0 0 0 -24 0 0 0 0
0 0 0 0 0 0 0 0 0 0 0 0 0 0 0 0 0 0 0 0 0 -3 -3 -2 -1 -4 -4 -2 -1 -1 -2 -2 -1 0 0 0 0 0 0 0 0 0 0
0 0 0 -26 0 0 0 0 0 0 0 0 0 0 0 0 0 -1 -3 -3 -4 -5 -6 -4 -3 -3 -4 -3 -1 0 -2 -2 0 0 0 0 0 0 0 -7 -2 0 0
0 0 -13 0 0 0 0 0 0 0 0 0 0 0 0 0 -1 -2 -2 -2 -2 -3 -5 -5 -4 -6 -5 -5 -3 -3 -4 -2 -3 0 0 0 0 0 0 0 -6 -4 -5
0 0 0 0 0 0 0 0 0 0 0 0 0 0 0 -1 -1 -1 -2 -3 -3 -4 -4 -4 -4 -7 -5 -5 -1 -2 -3 -6 -2 0 0 0 0 0 0 0 -1 -1 0
-1 0 0 0 0 0 0 0 0 0 0 0 0 0 0 0 0 0 0 -1 -1 -2 -3 -2 -1 -4 -3 -3 -6 -1 0 -2 -1 0 0 0 0 0 0 0 0 0 0
0 0 0 0 0 0 0 0 0 0 0 0 0 0 0 0 0 0 -1 -1 -2 -1 -1 -2 -2 -2 -4 -5 -3 -1 -2 -1 -1 -4 0 0 0 0 0 0 0 -1 0
0 0 0 0 0 0 0 0 0 0 0 0 0 0 0 0 0 -1 -1 -2 -3 -4 -4 -4 -4 -3 -3 -3 -2 -1 -3 -3 -2 0 0 0 0 0 0 0 0 0 0
0 0 0 0 0 0 0 0 0 0 0 0 0 0 0 0 -1 -1 -2 -2 -3 -3 -2 0 0 0 0 0 0 -1 -1 0 -1 -1 0 -2 0 0 0 0 0 0 0
0 0 0 0 0 0 0 0 0 0 0 0 0 0 0 -1 -1 -2 -2 -2 -1 -2 -2 -1 -1 -3 -1 -1 0 -1 -2 0 -1 -1 -3 -1 -2 -2 0 0 0 0 0
Wind_Speed
19 19 20 21 23 24 26 28 28 29 30 31 31 31 31 32 33 32 32 34 33 33 32 32 33 33 34 33 33 33 32 30 27 25 27 27 28 30 29 29 30 33 33
18 18 20 22 24 26 26 27 29 30 31 31 32 33 34 34 34 34 33 31 32 32 32 32 32 32 33 33 33 33 34 34 32 32 31 31 30 31 30 29 29 31 32
18 20 23 24 26 26 26 27 29 30 32 33 34 34 34 34 34 32 31 31 31 31 32 33 33 33 34 34 33 33 33 35 35 32 31 29 31 31 31 31 31 31 29
19 23 24 24 23 25 27 29 32 33 34 35 36 35 36 35 33 30 30 31 31 31 32 34 34 35 35 36 36 35 35 35 36 38 34 31 31 32 32 30 31 32 30
22 24 24 24 24 27 29 31 33 34 35 37 37 36 38 37 34 32 34 33 33 33 34 35 36 36 37 38 38 38 38 37 37 36 39 37 31 30 31 31 31 32 31
24 25 25 26 27 29 31 32 34 35 35 38 39 37 38 35 32 33 34 35 35 36 36 38 39 39 39 40 40 41 41 41 40 38 38 40 39 34 32 31 32 33 31
26 26 27 29 30 31 32 32 33 35 36 38 39 41 39 34 32 32 35 35 36 37 37 39 39 41 42 44 44 44 44 44 42 41 40 39 39 38 33 31 32 32 32
27 28 29 31 31 32 31 32 34 36 36 36 41 42 46 40 35 34 35 36 37 38 39 40 43 44 45 45 46 47 46 45 46 45 43 42 40 40 38 33 32 31 32
28 29 30 31 31 31 32 32 33 35 38 36 36 39 45 47 46 36 39 38 40 42 41 42 42 44 46 47 47 47 47 48 47 47 46 45 44 43 41 37 32 31 31
33 33 33 33 33 31 30 31 32 34 36 40 37 34 34 39 46 52 41 42 40 41 41 40 42 43 43 45 47 49 49 49 49 48 47 46 45 44 43 40 37 35 33
36 35 34 34 32 29 29 30 31 33 34 38 39 39 38 37 37 40 50 44 40 38 38 40 38 40 41 43 44 46 49 51 50 48 45 44 44 43 43 41 39 38 36
39 37 35 32 28 27 29 29 30 32 34 35 35 36 36 37 37 37 40 40 41 39 39 39 40 40 41 41 41 43 45 47 47 46 43 42 40 39 36 36 37 36 36
40 39 34 29 27 28 28 30 31 32 33 35 33 33 31 31 30 31 33 37 39 41 40 39 41 41 41 39 37 39 41 41 41 41 40 39 38 36 34 33 35 35 35
39 37 30 26 25 27 28 30 31 32 30 31 31 29 29 28 27 28 30 34 42 43 45 45 41 41 38 39 39 37 34 35 36 34 34 35 35 36 35 33 33 34 35
38 33 26 24 26 27 32 30 32 31 30 28 28 26 27 26 26 26 28 29 35 47 53 47 46 41 41 40 37 37 32 33 31 30 27 28 30 34 34 34 33 32 33
36 30 25 25 28 33 31 29 29 28 27 26 26 25 25 24 24 26 29 30 31 35 45 41 43 41 39 38 37 37 32 30 29 29 28 27 28 30 32 32 35 36 34
35 29 27 29 33 30 28 27 25 24 25 25 24 23 23 23 25 29 30 30 30 32 36 37 36 37 38 37 36 36 32 28 28 26 26 26 27 28 28 29 30 32 36
34 32 30 32 32 31 25 24 22 23 25 25 24 22 24 27 28 30 32 31 32 31 32 35 37 36 36 36 36 35 29 28 29 26 24 24 26 27 28 28 28 28 30
34 33 34 33 29 26 23 23 22 24 26 26 24 23 27 29 31 32 32 33 30 29 29 31 35 32 31 32 35 32 32 28 28 30 28 24 24 25 26 27 24 28 27
35 32 31 31 27 22 23 23 22 25 28 27 26 26 28 30 32 33 32 30 28 28 29 30 28 29 29 29 31 29 30 25 28 28 29 27 24 23 24 25 23 23 28
33 32 31 27 24 21 22 23 24 28 30 31 30 29 30 31 32 31 31 29 30 29 28 27 26 25 25 26 26 27 29 29 28 28 29 28 27 24 22 21 22 21 20
32 31 29 25 22 22 25 25 28 30 31 33 33 32 32 32 31 31 28 27 26 26 25 24 24 20 21 22 25 25 28 28 30 24 28 29 27 27 23 21 19 19 24
31 29 25 22 21 21 23 27 29 30 31 32 33 32 32 31 31 30 28 27 25 23 20 20 17 16 19 23 26 27 26 28 30 30 30 32 29 29 28 25 22 16 18
30 25 22 19 19 21 24 27 30 30 30 31 31 30 31 31 30 30 30 28 26 25 22 17 13 10 11 19 22 28 32 31 32 32 31 34 31 32 30 29 27 25 22
27 23 19 18 19 21 25 29 30 29 29 30 29 29 30 29 29 29 31 29 26 23 21 18 11 6 4 5 7 32 31 28 33 34 32 34 34 34 33 33 31 29 27
25 20 18 18 20 22 26 28 29 28 29 29 28 28 28 28 27 31 31 28 23 25 22 17 13 7 1 2 6 28 32 32 28 28 28 30 30 29 30 29 31 29 28
Wind_Direction
340 346 348 349 346 349 350 346 347 344 342 341 341 341 340 338 336 335 334 333 331 330 327 324 320 318 316 312 307 305 305 307 309 311 307 303 297 291 289 284 276 265 260
348 352 347 349 346 346 347 344 342 340 339 337 336 335 334 333 332 331 331 333 334 332 330 328 327 323 320 317 314 308 302 301 303 303 301 298 296 290 288 286 282 277 269
351 346 339 344 342 344 345 343 339 337 334 334 332 332 332 333 332 333 333 333 332 332 330 327 325 323 321 318 316 312 306 300 296 299 300 298 292 291 288 285 283 280 279
350 336 345 344 346 345 342 337 333 332 332 332 331 331 330 330 331 331 332 330 329 327 325 324 322 320 318 315 312 310 308 304 297 291 293 295 293 289 287 287 282 277 277
344 344 344 345 344 341 338 335 333 333 331 330 329 328 327 326 325 324 323 323 323 322 320 318 317 316 315 313 310 307 304 302 300 295 287 286 288 287 285 283 282 278 275
345 344 344 342 341 337 336 336 334 334 332 330 327 326 326 324 322 321 321 320 319 317 316 314 313 311 310 309 307 304 301 298 296 296 290 284 283 283 283 281 278 277 277
346 344 341 339 338 336 336 336 335 333 331 331 327 324 323 321 320 319 319 318 318 317 315 313 311 309 306 303 301 299 297 294 293 291 289 286 281 280 276 274 276 276 276
345 341 338 336 335 335 335 335 333 330 330 333 328 324 320 319 318 318 318 318 316 316 313 312 309 307 304 301 299 296 294 292 289 286 285 283 281 275 271 269 271 274 273
346 340 338 337 334 333 331 333 334 333 330 333 335 328 321 316 317 318 317 316 315 313 312 310 308 306 303 300 296 293 291 290 288 285 282 280 278 275 271 265 265 269 271
338 336 334 334 334 334 334 335 336 335 334 330 332 332 329 322 317 312 315 314 315 314 313 312 311 310 307 303 296 292 289 287 286 283 280 278 276 273 269 264 262 264 267
334 334 334 334 334 335 336 337 337 337 337 332 329 327 325 323 320 317 313 315 315 316 314 313 312 312 311 307 303 296 290 285 282 281 278 277 275 272 268 262 261 261 263
332 333 333 334 335 336 336 337 337 336 334 333 330 328 327 325 322 321 319 319 317 318 316 315 313 313 313 309 307 303 296 288 283 279 276 274 274 272 268 261 258 259 261
334 333 333 334 336 338 339 337 336 336 334 333 333 333 333 330 328 326 324 322 319 318 317 316 314 313 312 311 310 308 303 295 287 281 276 274 272 270 269 263 261 259 260
337 336 336 338 340 339 339 337 333 335 336 334 334 334 334 333 333 331 328 325 320 317 314 312 314 312 311 309 307 308 308 304 291 285 281 276 271 270 266 267 262 261 259
341 342 343 342 341 341 337 336 336 335 337 337 337 337 337 336 335 334 332 330 326 317 305 312 310 312 308 306 303 303 303 307 298 292 289 283 278 270 267 263 262 261 261
345 345 344 343 341 338 339 339 339 340 340 341 341 341 341 341 340 337 333 330 327 323 316 320 316 314 312 308 301 297 296 300 302 295 289 288 284 279 270 265 261 260 259
347 346 343 340 339 339 338 339 343 345 345 345 345 344 343 344 339 335 334 332 329 326 322 322 322 320 314 309 301 295 292 290 294 301 294 291 289 282 277 267 265 263 259
347 345 342 339 338 337 340 343 344 346 346 345 346 346 342 340 338 336 334 332 329 327 325 322 322 320 317 311 300 293 290 287 282 292 298 295 290 285 277 273 266 264 261
344 342 340 338 341 342 345 345 343 343 344 343 345 344 340 338 336 335 334 331 331 330 328 325 323 324 319 315 305 290 286 285 281 279 282 292 294 288 284 273 269 261 259
346 345 345 343 343 346 348 347 345 343 341 340 341 341 341 339 337 337 336 335 334 332 330 327 326 325 322 318 310 290 282 285 279 279 278 279 287 290 288 279 267 266 255
349 348 345 349 350 350 350 349 345 342 340 337 339 340 341 341 339 339 337 337 334 333 333 331 329 327 324 320 312 301 283 280 281 277 275 273 274 281 287 289 271 267 265
346 347 347 350 353 353 349 350 346 343 341 339 340 341 342 343 344 343 343 341 341 339 335 335 333 329 326 320 308 300 290 280 274 279 272 270 271 268 275 280 283 271 263
344 346 350 354 355 356 354 350 348 346 344 342 343 344 346 347 347 348 348 345 344 344 340 337 330 332 331 321 307 298 291 281 275 273 273 266 266 263 264 267 271 276 263
346 347 351 357 359 357 354 351 348 347 347 347 348 350 349 349 351 350 348 349 352 353 354 349 342 334 336 329 317 298 283 278 273 271 269 262 263 260 261 260 260 263 261
351 353 358 360 0 357 354 351 350 350 350 351 353 353 353 353 355 353 349 352 356 0 3 1 357 336 293 315 322 276 275 275 267 266 264 260 260 258 258 257 256 258 258
350 355 359 360 358 356 354 353 353 354 353 355 357 358 359 359 358 354 352 357 4 3 4 8 15 19 5 210 202 230 239 250 266 264 261 256 259 259 258 257 255 256 258